TimeHST,TemperatureF,Dew PointF,Humidity,Sea Level PressureIn,VisibilityMPH,Wind Direction,Wind SpeedMPH,Gust SpeedMPH,PrecipitationIn,Events,Conditions,WindDirDegrees,DateUTC
12:53 AM,72.0,61.0,68,30.02,10.0,ESE,9.2,-,N/A,,Clear,120,2012-12-18 10:53:00
1:53 AM,73.0,60.1,64,30.01,10.0,SE,10.4,-,N/A,,Clear,130,2012-12-18 11:53:00
2:53 AM,73.0,60.1,64,30.00,10.0,SE,13.8,-,N/A,,Clear,130,2012-12-18 12:53:00
3:53 AM,73.0,59.0,61,30.00,10.0,ESE,10.4,-,N/A,,Clear,120,2012-12-18 13:53:00
4:53 AM,73.0,61.0,66,30.01,10.0,NE,10.4,-,N/A,,Clear,40,2012-12-18 14:53:00
5:53 AM,71.1,59.0,66,30.02,10.0,NNE,9.2,-,N/A,,Clear,30,2012-12-18 15:53:00
6:53 AM,71.1,57.0,61,30.02,10.0,NE,9.2,-,N/A,,Clear,40,2012-12-18 16:53:00
7:53 AM,75.0,57.0,53,30.03,10.0,NE,5.8,-,N/A,,Clear,40,2012-12-18 17:53:00
8:53 AM,77.0,59.0,54,30.05,10.0,South,4.6,-,N/A,,Clear,180,2012-12-18 18:53:00
9:53 AM,79.0,59.0,50,30.04,10.0,WSW,6.9,-,N/A,,Clear,240,2012-12-18 19:53:00
10:53 AM,80.1,60.1,50,30.02,10.0,South,8.1,-,N/A,,Clear,190,2012-12-18 20:53:00
11:53 AM,80.1,62.1,54,30.01,10.0,WSW,9.2,-,N/A,,Clear,240,2012-12-18 21:53:00
12:53 PM,82.0,60.1,47,29.98,10.0,SW,11.5,-,N/A,,Clear,220,2012-12-18 22:53:00
1:53 PM,81.0,62.1,52,29.97,10.0,SW,11.5,-,N/A,,Clear,220,2012-12-18 23:53:00
2:53 PM,81.0,63.0,54,29.95,10.0,SSW,12.7,-,N/A,,Clear,200,2012-12-19 00:53:00
3:53 PM,80.1,64.9,60,29.96,10.0,SW,10.4,-,N/A,,Clear,230,2012-12-19 01:53:00
4:53 PM,79.0,66.0,64,29.98,10.0,SW,10.4,-,N/A,,Partly Cloudy,230,2012-12-19 02:53:00
5:53 PM,78.1,66.0,66,29.99,10.0,SW,6.9,-,N/A,,Clear,230,2012-12-19 03:53:00
6:53 PM,77.0,66.0,69,29.99,10.0,West,10.4,-,N/A,,Overcast,260,2012-12-19 04:53:00
7:53 PM,75.9,66.0,71,30.01,10.0,West,6.9,-,N/A,,Scattered Clouds,270,2012-12-19 05:53:00
8:53 PM,75.9,66.0,71,30.01,10.0,West,5.8,-,N/A,,Clear,260,2012-12-19 06:53:00
9:53 PM,75.9,66.0,71,30.02,10.0,SW,5.8,-,N/A,,Partly Cloudy,230,2012-12-19 07:53:00
10:53 PM,75.0,64.9,71,30.01,10.0,SSW,4.6,-,N/A,,Scattered Clouds,210,2012-12-19 08:53:00
11:53 PM,75.0,64.9,71,30.02,10.0,SSW,4.6,-,N/A,,Clear,200,2012-12-19 09:53:00